timestamp,wind_dir_avg,wind_spd_avg,wind_spd_max_dir,wind_spd_gust,battery_voltage,lat,long
2022-01-23 00:04:00+00:00,102.0,4.43,107.0,6.3,12.49,47.59359,-54.27349
2022-01-23 00:14:01+00:00,112.0,4.15,105.0,6.35,12.49,47.59359,-54.27349
2022-01-23 00:24:01+00:00,86.0,5.28,97.0,6.36,12.49,47.59359,-54.27349
2022-01-23 00:34:01+00:00,95.0,5.09,104.0,6.45,12.49,47.59359,-54.27349
2022-01-23 00:44:01+00:00,75.0,3.91,73.0,5.5,12.49,47.59359,-54.27349
2022-01-23 00:54:01+00:00,91.0,4.99,108.0,6.56,12.49,47.59359,-54.27349
2022-01-23 01:04:01+00:00,106.0,4.21,101.0,6.0,12.49,47.59359,-54.27349
2022-01-23 01:14:00+00:00,81.0,4.25,88.0,5.66,12.41,47.59359,-54.27349
2022-01-23 01:24:00+00:00,84.0,4.48,85.0,6.13,12.41,47.59359,-54.27349
2022-01-23 01:34:00+00:00,83.0,4.96,90.0,6.89,12.41,47.59359,-54.27349
2022-01-23 01:44:00+00:00,71.0,4.35,62.0,5.61,12.41,47.59359,-54.27349
2022-01-23 01:54:00+00:00,87.0,4.51,94.0,6.22,12.41,47.59359,-54.27349
2022-01-23 02:04:00+00:00,89.0,4.94,89.0,6.35,12.41,47.59359,-54.27349
2022-01-23 02:14:01+00:00,93.0,4.53,86.0,6.3,12.41,47.59359,-54.27349
2022-01-23 02:24:01+00:00,111.0,4.85,108.0,6.78,12.41,47.59359,-54.27349
2022-01-23 02:34:01+00:00,91.0,5.08,97.0,7.22,12.41,47.59359,-54.27349
2022-01-23 02:44:01+00:00,95.0,4.73,97.0,7.14,12.41,47.59359,-54.27349
2022-01-23 02:54:01+00:00,103.0,5.1,115.0,7.02,12.41,47.59359,-54.27349
2022-01-23 03:04:01+00:00,97.0,4.4,86.0,6.25,12.41,47.59359,-54.27349
2022-01-23 03:14:00+00:00,107.0,5.11,112.0,6.75,12.41,47.59359,-54.27349
2022-01-23 03:24:00+00:00,76.0,4.2,89.0,6.26,12.41,47.59359,-54.27349
2022-01-23 03:34:00+00:00,77.0,3.99,86.0,6.96,12.41,47.59359,-54.27349
2022-01-23 03:44:00+00:00,107.0,4.47,96.0,6.55,12.41,47.59359,-54.27349
2022-01-23 03:54:00+00:00,81.0,3.71,87.0,7.31,12.41,47.59359,-54.27349
2022-01-23 04:04:00+00:00,62.0,3.95,73.0,7.62,12.41,47.59359,-54.27349
2022-01-23 04:14:00+00:00,91.0,4.16,89.0,6.76,12.41,47.59359,-54.27349
2022-01-23 04:24:00+00:00,93.0,4.66,68.0,6.92,12.41,47.59359,-54.27349
2022-01-23 04:34:00+00:00,92.0,3.66,83.0,7.22,12.41,47.59359,-54.27349
2022-01-23 04:44:00+00:00,78.0,4.22,78.0,6.86,12.41,47.59359,-54.27349
2022-01-23 04:54:00+00:00,63.0,4.67,72.0,8.35,12.41,47.59359,-54.27349
2022-01-23 05:04:00+00:00,63.0,3.8,61.0,8.28,12.41,47.59359,-54.27349
2022-01-23 05:14:01+00:00,74.0,2.98,95.0,6.58,12.41,47.59359,-54.27349
2022-01-23 05:24:01+00:00,61.0,3.28,77.0,7.62,12.41,47.59359,-54.27349
2022-01-23 05:34:01+00:00,70.0,3.6,65.0,8.33,12.41,47.59359,-54.27349
2022-01-23 05:44:01+00:00,74.0,6.93,76.0,13.67,12.41,47.59359,-54.27349
2022-01-23 05:54:01+00:00,64.0,4.24,76.0,9.62,12.41,47.59359,-54.27349
2022-01-23 06:04:01+00:00,71.0,3.34,66.0,7.8,12.41,47.59359,-54.27349
2022-01-23 06:14:01+00:00,70.0,5.18,83.0,10.5,12.41,47.59359,-54.27349
2022-01-23 06:24:01+00:00,68.0,5.4,75.0,11.96,12.41,47.59359,-54.27349
2022-01-23 06:34:01+00:00,88.0,3.7,76.0,7.81,12.41,47.59359,-54.27349
2022-01-23 06:44:01+00:00,63.0,4.45,64.0,9.63,12.41,47.59359,-54.27349
2022-01-23 06:54:01+00:00,80.0,4.32,92.0,12.54,12.41,47.59359,-54.27349
2022-01-23 07:04:01+00:00,77.0,3.67,90.0,6.68,12.41,47.59359,-54.27349
2022-01-23 07:14:00+00:00,73.0,4.01,71.0,7.89,12.41,47.59359,-54.27349
2022-01-23 07:24:00+00:00,75.0,3.99,86.0,7.59,12.41,47.59359,-54.27349
2022-01-23 07:34:00+00:00,69.0,4.21,71.0,8.36,12.41,47.59359,-54.27349
2022-01-23 07:44:00+00:00,66.0,4.41,81.0,5.48,12.41,47.59359,-54.27349
2022-01-23 07:54:00+00:00,58.0,4.67,90.0,7.58,12.41,47.59359,-54.27349
2022-01-23 08:04:00+00:00,72.0,4.14,75.0,7.3,12.41,47.59359,-54.27349
2022-01-23 08:14:01+00:00,72.0,3.69,77.0,6.36,12.33,47.59359,-54.27349
2022-01-23 08:24:01+00:00,52.0,3.35,63.0,5.34,12.33,47.59359,-54.27349
2022-01-23 08:34:01+00:00,44.0,4.25,34.0,6.67,12.33,47.59359,-54.27349
2022-01-23 08:44:01+00:00,49.0,4.48,43.0,6.26,12.33,47.59359,-54.27349
2022-01-23 08:54:01+00:00,48.0,5.08,63.0,6.78,12.33,47.59359,-54.27349
2022-01-23 09:04:01+00:00,32.0,5.62,41.0,7.62,12.33,47.59359,-54.27349
2022-01-23 09:14:01+00:00,56.0,6.03,68.0,8.44,12.33,47.59359,-54.27349
2022-01-23 09:24:01+00:00,56.0,9.67,68.0,13.49,12.33,47.59359,-54.27349
2022-01-23 09:34:01+00:00,41.0,7.44,50.0,10.53,12.33,47.59359,-54.27349
2022-01-23 09:44:01+00:00,48.0,9.91,58.0,15.5,12.33,47.59359,-54.27349
2022-01-23 09:54:01+00:00,46.0,9.22,49.0,12.69,12.33,47.59359,-54.27349
2022-01-23 10:04:01+00:00,42.0,8.82,52.0,10.64,12.33,47.59359,-54.27349
2022-01-23 10:14:01+00:00,36.0,8.78,38.0,12.02,12.33,47.59359,-54.27349
2022-01-23 10:24:01+00:00,22.0,9.3,42.0,11.18,12.33,47.59359,-54.27349
2022-01-23 10:34:01+00:00,41.0,10.9,54.0,14.64,12.33,47.59359,-54.27349
2022-01-23 10:44:01+00:00,35.0,11.8,48.0,14.95,12.33,47.59359,-54.27349
2022-01-23 10:54:01+00:00,48.0,10.97,60.0,14.83,12.33,47.59359,-54.27349
2022-01-23 11:04:01+00:00,53.0,13.64,56.0,16.22,12.33,47.59359,-54.27349
2022-01-23 11:14:00+00:00,51.0,13.84,55.0,16.92,12.33,47.59359,-54.27349
2022-01-23 11:24:00+00:00,45.0,11.78,56.0,15.72,12.33,47.59359,-54.27349
2022-01-23 11:34:00+00:00,39.0,12.59,43.0,14.97,12.33,47.59359,-54.27349
2022-01-23 11:44:00+00:00,23.0,10.55,35.0,12.58,12.33,47.59359,-54.27349
2022-01-23 11:54:00+00:00,20.0,10.89,21.0,12.18,12.33,47.59359,-54.27349
2022-01-23 12:04:00+00:00,20.0,10.98,17.0,12.83,12.33,47.59359,-54.27349
2022-01-23 12:14:00+00:00,19.0,11.49,16.0,13.11,12.33,47.59359,-54.27349
2022-01-23 12:24:00+00:00,20.0,11.09,9.0,12.34,12.33,47.59359,-54.27349
2022-01-23 12:34:00+00:00,16.0,10.95,19.0,12.95,12.33,47.59359,-54.27349
2022-01-23 12:44:00+00:00,18.0,12.06,15.0,14.3,12.33,47.59359,-54.27349
2022-01-23 12:54:00+00:00,19.0,11.85,24.0,13.96,12.33,47.59359,-54.27349
2022-01-23 13:04:00+00:00,19.0,12.2,20.0,13.76,12.33,47.59359,-54.27349
2022-01-23 13:14:01+00:00,17.0,11.73,19.0,13.11,13.13,47.59359,-54.27349
2022-01-23 13:24:01+00:00,21.0,11.43,26.0,13.69,13.13,47.59359,-54.27349
2022-01-23 13:34:01+00:00,22.0,12.42,26.0,14.02,13.13,47.59359,-54.27349
2022-01-23 13:44:01+00:00,3.0,10.64,2.0,12.81,13.13,47.59359,-54.27349
2022-01-23 13:54:01+00:00,16.0,11.61,23.0,13.67,13.13,47.59359,-54.27349
2022-01-23 14:04:01+00:00,16.0,11.7,16.0,15.02,13.13,47.59359,-54.27349
2022-01-23 14:14:01+00:00,16.0,10.85,19.0,13.44,13.05,47.59359,-54.27349
2022-01-23 14:24:01+00:00,17.0,10.66,17.0,12.88,13.05,47.59359,-54.27349
2022-01-23 14:34:01+00:00,12.0,10.23,8.0,11.85,13.05,47.59359,-54.27349
2022-01-23 14:44:01+00:00,14.0,10.96,18.0,13.27,13.05,47.59359,-54.27349
2022-01-23 14:54:01+00:00,9.0,8.73,2.0,10.8,13.05,47.59359,-54.27349
2022-01-23 15:04:01+00:00,18.0,10.59,23.0,12.17,13.05,47.59359,-54.27349
2022-01-23 15:14:00+00:00,13.0,9.67,7.0,11.17,12.97,47.59359,-54.27349
2022-01-23 15:24:00+00:00,9.0,9.89,1.0,11.8,12.97,47.59359,-54.27349
2022-01-23 15:34:00+00:00,13.0,9.65,17.0,10.94,12.97,47.59359,-54.27349
2022-01-23 15:44:00+00:00,9.0,8.01,15.0,9.25,12.97,47.59359,-54.27349
2022-01-23 15:54:00+00:00,4.0,8.66,0.0,10.27,12.97,47.59359,-54.27349
2022-01-23 16:04:00+00:00,4.0,8.8,14.0,9.7,12.97,47.59359,-54.27349
2022-01-23 16:14:01+00:00,5.0,8.93,3.0,10.66,13.05,47.59359,-54.27349
2022-01-23 16:24:01+00:00,350.0,7.8,335.0,9.57,13.05,47.59359,-54.27349
2022-01-23 16:34:01+00:00,334.0,9.8,331.0,11.31,13.05,47.59359,-54.27349
2022-01-23 16:44:01+00:00,339.0,8.22,329.0,9.82,13.05,47.59359,-54.27349
2022-01-23 16:54:01+00:00,333.0,9.89,329.0,11.7,13.05,47.59359,-54.27349
2022-01-23 17:04:01+00:00,343.0,9.31,333.0,10.99,13.05,47.59359,-54.27349
2022-01-23 17:14:01+00:00,343.0,9.0,332.0,10.41,13.6,47.59359,-54.27349
2022-01-23 17:24:01+00:00,2.0,8.94,17.0,10.88,13.6,47.59359,-54.27349
2022-01-23 17:34:01+00:00,352.0,8.12,342.0,10.03,13.6,47.59359,-54.27349
2022-01-23 17:44:01+00:00,11.0,8.15,19.0,9.69,13.6,47.59359,-54.27349
2022-01-23 17:54:01+00:00,4.0,8.47,0.0,9.86,13.6,47.59359,-54.27349
2022-01-23 18:04:01+00:00,348.0,6.83,333.0,7.85,13.6,47.59359,-54.27349
2022-01-23 18:14:00+00:00,344.0,5.86,346.0,6.55,13.6,47.59359,-54.27349
2022-01-23 18:24:00+00:00,348.0,5.25,319.0,6.51,13.6,47.59359,-54.27349
2022-01-23 18:34:00+00:00,342.0,6.28,328.0,8.5,13.6,47.59359,-54.27349
2022-01-23 18:44:00+00:00,319.0,7.66,321.0,8.51,13.6,47.59359,-54.27349
2022-01-23 18:54:00+00:00,330.0,7.25,332.0,8.5,13.6,47.59359,-54.27349
2022-01-23 19:04:00+00:00,329.0,5.8,330.0,6.68,13.6,47.59359,-54.27349
2022-01-23 19:14:00+00:00,321.0,6.97,328.0,7.8,13.37,47.59359,-54.27349
2022-01-23 19:24:00+00:00,325.0,5.66,311.0,7.0,13.37,47.59359,-54.27349
2022-01-23 19:34:00+00:00,325.0,5.49,327.0,6.73,13.37,47.59359,-54.27349
2022-01-23 19:44:00+00:00,319.0,5.93,317.0,6.59,13.37,47.59359,-54.27349
2022-01-23 19:54:00+00:00,318.0,6.44,328.0,7.73,13.37,47.59359,-54.27349
2022-01-23 20:04:00+00:00,318.0,6.32,312.0,7.33,13.37,47.59359,-54.27349
2022-01-23 20:14:01+00:00,306.0,4.33,305.0,4.97,12.89,47.59359,-54.27349
2022-01-23 20:24:01+00:00,311.0,4.64,317.0,5.38,12.89,47.59359,-54.27349
2022-01-23 20:34:01+00:00,305.0,4.71,312.0,5.48,12.89,47.59359,-54.27349
2022-01-23 20:44:01+00:00,300.0,5.33,292.0,6.29,12.89,47.59359,-54.27349
2022-01-23 20:54:01+00:00,288.0,6.85,285.0,8.81,12.89,47.59359,-54.27349
2022-01-23 21:04:01+00:00,295.0,6.0,300.0,7.0,12.89,47.59359,-54.27349
2022-01-23 21:14:00+00:00,296.0,6.78,298.0,8.08,12.57,47.59359,-54.27349
2022-01-23 21:24:00+00:00,311.0,6.7,312.0,7.89,12.57,47.59359,-54.27349
2022-01-23 21:34:00+00:00,296.0,6.75,291.0,8.71,12.57,47.59359,-54.27349
2022-01-23 21:44:00+00:00,302.0,5.75,304.0,6.66,12.57,47.59359,-54.27349
2022-01-23 21:54:00+00:00,287.0,5.85,285.0,7.62,12.57,47.59359,-54.27349
2022-01-23 22:04:00+00:00,291.0,5.22,289.0,6.76,12.57,47.59359,-54.27349
2022-01-23 22:14:01+00:00,285.0,4.02,285.0,4.6,12.57,47.59359,-54.27349
2022-01-23 22:24:01+00:00,293.0,5.75,290.0,6.54,12.57,47.59359,-54.27349
2022-01-23 22:34:01+00:00,296.0,5.02,295.0,5.7,12.57,47.59359,-54.27349
2022-01-23 22:44:01+00:00,282.0,4.67,290.0,5.38,12.57,47.59359,-54.27349
2022-01-23 22:54:01+00:00,276.0,4.46,281.0,5.03,12.57,47.59359,-54.27349
2022-01-23 23:04:01+00:00,274.0,4.93,269.0,6.1,12.57,47.59359,-54.27349
2022-01-23 23:14:00+00:00,270.0,4.75,277.0,5.51,12.49,47.59359,-54.27349
2022-01-23 23:24:00+00:00,270.0,5.82,269.0,6.79,12.49,47.59359,-54.27349
2022-01-23 23:34:00+00:00,280.0,4.75,288.0,5.13,12.49,47.59359,-54.27349
2022-01-23 23:44:00+00:00,276.0,6.18,271.0,6.92,12.49,47.59359,-54.27349
2022-01-23 23:54:00+00:00,275.0,7.19,262.0,8.54,12.49,47.59359,-54.27349
